Location: Buckenweiler
(49.0667°N, 10.2500°E)
Time: 10:23:39
(UTC+00:00)

Cosmos 1190 Rocket - Pass Details

Date: 18 January 2026
Orbit: 753 x 775 km, 74.1° (Epoch: 18 February)

Event Time Altitude Azimuth Distance (km) Brightness Sun altitude
Rises 06:10:40 0° 202° (SSW) 3,206 7.2 -8.9°
Reaches altitude 10° 06:13:02 10° 202° (SSW) 2,282 6.5 -8.6°
Maximum altitude 06:18:13 88° 294° (WNW) 763 4.0 -7.8°
Drops below altitude 10° 06:23:25 10° 23° (NNE) 2,289 6.5 -7.0°
Sets 06:25:48 0° 24° (NNE) 3,217 7.2 -6.6°
